TimeMDT,TemperatureF,Dew PointF,Humidity,Sea Level PressureIn,VisibilityMPH,Wind Direction,Wind SpeedMPH,Gust SpeedMPH,PrecipitationIn,Events,Conditions,WindDirDegrees,DateUTC
12:53 AM,73.0,39.9,30,29.64,10.0,South,8.1,-,N/A,,Clear,170,2013-05-23 06:53:00
1:53 AM,69.1,41.0,36,29.66,10.0,South,5.8,-,N/A,,Clear,190,2013-05-23 07:53:00
2:53 AM,64.9,41.0,42,29.67,10.0,SW,4.6,-,N/A,,Clear,220,2013-05-23 08:53:00
3:53 AM,63.0,43.0,48,29.68,10.0,South,5.8,-,N/A,,Clear,190,2013-05-23 09:53:00
4:53 AM,63.0,46.9,56,29.69,10.0,South,4.6,-,N/A,,Clear,180,2013-05-23 10:53:00
5:53 AM,62.1,46.0,56,29.71,9.0,South,4.6,-,N/A,,Clear,180,2013-05-23 11:53:00
6:53 AM,64.9,44.1,47,29.73,8.0,SSW,3.5,-,N/A,,Clear,200,2013-05-23 12:53:00
7:53 AM,73.0,46.0,38,29.74,9.0,SSE,8.1,-,N/A,,Clear,160,2013-05-23 13:53:00
8:53 AM,80.1,51.1,36,29.75,9.0,SE,6.9,-,N/A,,Clear,130,2013-05-23 14:53:00
9:53 AM,84.9,48.9,29,29.74,10.0,SE,5.8,-,N/A,,Clear,130,2013-05-23 15:53:00
10:53 AM,91.0,43.0,19,29.73,10.0,Calm,Calm,-,N/A,,Clear,0,2013-05-23 16:53:00
11:53 AM,95.0,44.1,17,29.71,10.0,ESE,6.9,21.9,N/A,,Clear,120,2013-05-23 17:53:00
12:53 PM,96.1,43.0,16,29.69,10.0,SSE,10.4,-,N/A,,Clear,160,2013-05-23 18:53:00
1:30 PM,93.2,48.2,21,29.86,9.0,SE,17.3,-,N/A,Thunderstorm,Thunderstorm,140,2013-05-23 19:30:00
1:53 PM,91.9,51.1,25,29.69,8.0,SE,10.4,-,N/A,Thunderstorm,Clear,140,2013-05-23 19:53:00
2:45 PM,89.6,46.4,22,29.83,10.0,South,18.4,-,0.00,,Partly Cloudy,170,2013-05-23 20:45:00
2:53 PM,90.0,48.0,24,29.66,10.0,SSE,17.3,23.0,0.00,,Partly Cloudy,150,2013-05-23 20:53:00
3:20 PM,96.8,35.6,12,29.81,10.0,SE,18.4,26.5,N/A,Thunderstorm,Clear,130,2013-05-23 21:20:00
3:35 PM,93.2,35.6,13,29.80,10.0,SE,13.8,24.2,N/A,Thunderstorm,Clear,130,2013-05-23 21:35:00
3:53 PM,91.0,43.0,19,29.65,10.0,SE,11.5,-,N/A,,Clear,130,2013-05-23 21:53:00
4:21 PM,78.8,48.2,34,29.84,2.0,SSE,23.0,40.3,N/A,,Haze,150,2013-05-23 22:21:00
4:31 PM,77.0,50.0,39,29.84,5.0,SSE,24.2,35.7,N/A,,Haze,150,2013-05-23 22:31:00
4:48 PM,77.0,50.0,39,29.85,10.0,SE,19.6,31.1,N/A,Thunderstorm,Thunderstorm,140,2013-05-23 22:48:00
4:53 PM,77.0,50.0,39,29.73,10.0,SSE,18.4,28.8,N/A,Thunderstorm,Thunderstorm,160,2013-05-23 22:53:00
5:08 PM,71.6,57.2,60,29.87,2.5,SE,20.7,27.6,0.08,Rain-Thunderstorm,Light Thunderstorms and Rain,140,2013-05-23 23:08:00
5:15 PM,73.4,55.4,53,29.87,9.0,SE,21.9,31.1,0.08,Rain-Thunderstorm,Light Thunderstorms and Rain,130,2013-05-23 23:15:00
5:53 PM,73.9,54.0,50,29.77,10.0,SSE,26.5,35.7,0.09,Rain,Light Rain,150,2013-05-23 23:53:00
6:53 PM,73.0,54.0,51,29.80,10.0,South,12.7,26.5,0.00,,Clear,170,2013-05-24 00:53:00
7:06 PM,73.4,53.6,50,29.95,9.0,Variable,5.8,-,0.00,Rain-Thunderstorm,Light Rain,0,2013-05-24 01:06:00
7:17 PM,73.4,51.8,47,29.90,9.0,SSE,38.0,44.9,0.00,Rain-Thunderstorm,Light Rain,160,2013-05-24 01:17:00
7:23 PM,75.2,51.8,44,29.91,10.0,South,23.0,43.7,0.00,,Scattered Clouds,170,2013-05-24 01:23:00
7:53 PM,71.1,53.1,53,29.79,10.0,South,24.2,35.7,0.00,,Clear,170,2013-05-24 01:53:00
8:53 PM,-9999,-9999,N/A,29.97,-9999.0,North,-9999.0,-,N/A,,Unknown,0,2013-05-24 02:53:00
9:53 PM,69.1,53.1,57,29.83,10.0,South,17.3,26.5,N/A,,Clear,170,2013-05-24 03:53:00
10:53 PM,71.1,53.1,53,29.81,10.0,South,16.1,-,N/A,,Clear,190,2013-05-24 04:53:00
11:53 PM,70.0,53.1,55,29.80,10.0,South,12.7,-,N/A,,Clear,170,2013-05-24 05:53:00